Regional Weather Roundup
Issued by NWS

Home | Current Version | Previous Version | Text Only | Print | Product List | Glossary On
Versions: 1 2 3 4 5 6 7 8 9 10 11 12 13 14 15 16 17 18 19 20 21 22 23 24 25 26 27 28 29 30 31 32 33 34 35 36 37 38 39 40 41 42 43 44 45 46 47 48 49 50
000
ASUS44 KFWD 130610
RWRTX
NORTH TEXAS HOURLY WEATHER ROUNDUP
NATIONAL WEATHER SERVICE FORT WORTH TX
100 AM CDT SUN JUL 13 2014

NOTE: "FAIR" INDICATES FEW OR NO CLOUDS BELOW 12,000 FEET WITH NO
SIGNIFICANT WEATHER AND/OR OBSTRUCTIONS TO VISIBILITY.

TXZ118-119-130700-
DALLAS/FORT WORTH METROPLEX

CITY           SKY/WX    TMP DP  RH WIND       PRES   REMARKS
DFW AIRPORT    CLEAR     83  66  56 S9        30.07S
6HR MIN TEMP:  83; 6HR MAX TEMP:  96;

DALLAS LOVE    CLEAR     84  66  54 S8        30.07S
6HR MIN TEMP:  84; 6HR MAX TEMP:  95;

FTW MEACHAM    CLEAR     81  64  56 SE6       30.07S
6HR MIN TEMP:  80; 6HR MAX TEMP:  95;

DAL-EXECUTIVE  CLEAR     83  66  56 S3        30.08R
6HR MIN TEMP:  82; 6HR MAX TEMP:  94;

FTW-ALLIANCE   CLEAR     77  63  61 S6        30.06F
6HR MIN TEMP:  76; 6HR MAX TEMP:  93;

FTW-NAS-JRB    CLEAR     82  62  50 S5        30.11S
6HR MIN TEMP:  82; 6HR MAX TEMP:  96;

FTW-SPINKS     CLEAR     77  64  63 CALM      30.09F
6HR MIN TEMP:  77; 6HR MAX TEMP:  94;

ARLINGTON      CLEAR     78  66  66 S3        30.08S
6HR MIN TEMP:  78; 6HR MAX TEMP:  94;

GRAND PRAIRIE  CLEAR     82  66  57 CALM      30.09S
6HR MIN TEMP:  82; 6HR MAX TEMP:  95;

ADDISON        CLEAR     86  64  48 S8        30.09S
6HR MIN TEMP:  85; 6HR MAX TEMP:  96;

MESQUITE       CLEAR     76  69  79 SE5       30.07F
6HR MIN TEMP:  76; 6HR MAX TEMP:  93;

LANCASTER      CLEAR     73  65  78 CALM      30.08F
6HR MIN TEMP:  72; 6HR MAX TEMP:  92;

$$

TXZ091>094-102>105-117-120-121-131>134-130700-
NORTH CENTRAL TEXAS

CITY           SKY/WX    TMP DP  RH WIND       PRES   REMARKS
SHRMAN/DENISON CLEAR     82  65  56 S7        30.09S
6HR MIN TEMP:  82; 6HR MAX TEMP:  96;

GAINESVILLE    CLEAR     78  61  57 CALM      30.10S
6HR MIN TEMP:  78; 6HR MAX TEMP:  94;

BOWIE          CLEAR     76  63  62 S5        30.09S
6HR MIN TEMP:  76; 6HR MAX TEMP:  92;

BRIDGEPORT     CLEAR     80  60  51 S9        30.10R
6HR MIN TEMP:  78; 6HR MAX TEMP:  93;

DECATUR        CLEAR     82  61  48 S8        30.09S
6HR MIN TEMP:  82; 6HR MAX TEMP:  93;

DENTON         CLEAR     78  64  61 S5        30.07S
6HR MIN TEMP:  77; 6HR MAX TEMP:  94;

MCKINNEY       CLEAR     78  67  68 CALM      30.08S
6HR MIN TEMP:  77; 6HR MAX TEMP:  95;

GREENVILLE     CLEAR     77  68  73 CALM      30.09R
ROCKWALL       CLEAR     80  69  69 S5        30.07S
6HR MIN TEMP:  80; 6HR MAX TEMP:  93;

TERRELL        CLEAR     79  71  76 CALM      30.08S
6HR MIN TEMP:  79; 6HR MAX TEMP:  94;

WAXAHACHIE     CLEAR     77  65  66 CALM      30.10S
6HR MIN TEMP:  77; 6HR MAX TEMP:  93;

CLEBURNE       CLEAR     77  68  73 SE6       30.10F
GRANBURY       CLEAR     79  65  61 SE5       30.09F
6HR MIN TEMP:  79; 6HR MAX TEMP:  96;

$$

TXZ083>090-098>101-113>116-127>130-139>142-154-155-130700-
WESTERN NORTH TEXAS

CITY           SKY/WX    TMP DP  RH WIND       PRES   REMARKS
WICHITA FALLS  CLEAR     81  59  47 S16       30.05S
6HR MIN TEMP:  81; 6HR MAX TEMP:  96;

WF-KICKAPOO    CLEAR     79  58  49 S5        30.07F
6HR MIN TEMP:  79; 6HR MAX TEMP:  96;

VERNON         CLEAR     81  50  33 S8        30.07R
6HR MIN TEMP:  81; 6HR MAX TEMP: 102;

ABILENE        CLEAR     79  50  36 SE10      30.11R
6HR MIN TEMP:  79; 6HR MAX TEMP:  96;

BRECKENRIDGE   CLEAR     83  55  37 S10       30.08S
6HR MIN TEMP:  83; 6HR MAX TEMP:  97;

MINERAL WELLS  CLEAR     75  63  66 SE8       30.07S
6HR MIN TEMP:  75; 6HR MAX TEMP:  94;

STEPHENVILLE   CLEAR     77  60  56 S3        30.13F
6HR MIN TEMP:  77; 6HR MAX TEMP:  93;

COMANCHE       CLEAR     74  56  54 S5        30.11S
6HR MIN TEMP:  74; 6HR MAX TEMP:  94;

BROWNWOOD      PTCLDY    79  55  44 SE7       30.11S
COLEMAN        CLEAR     79  50  36 S6        30.12R
6HR MIN TEMP:  78; 6HR MAX TEMP:  97;

BRADY          CLEAR     79  59  50 SE7       30.12S
$$

TXZ143>147-156>162-174-175-130700-
CENTRAL TEXAS

CITY           SKY/WX    TMP DP  RH WIND       PRES   REMARKS
WACO           CLEAR     82  67  60 S7        30.08S
6HR MIN TEMP:  79; 6HR MAX TEMP:  93;

WACO-MCGREGOR  CLEAR     77  63  61 S6        30.10S
6HR MIN TEMP:  75; 6HR MAX TEMP:  95;

HILLSBORO      CLEAR     81  65  59 SE7       30.09S
6HR MIN TEMP:  80; 6HR MAX TEMP:  92;

CORSICANA      CLEAR     80  70  71 SE5       30.09S
6HR MIN TEMP:  80; 6HR MAX TEMP:  94;

MEXIA          CLEAR     78  71  78 CALM      30.08S
6HR MIN TEMP:  77; 6HR MAX TEMP:  90;

HEARNE         CLEAR     82  72  71 CALM      30.08S
6HR MIN TEMP:  82; 6HR MAX TEMP:  96;

CAMERON        CLEAR     81  69  68 S7        30.08S
6HR MIN TEMP:  81; 6HR MAX TEMP:  94;

TEMPLE         CLEAR     81  63  54 S8        30.10R
6HR MIN TEMP:  79; 6HR MAX TEMP:  93;

KILLEEN        NOT AVBL
KILLEEN-SKYLRK CLEAR     81  63  54 S7        30.09S
6HR MIN TEMP:  81; 6HR MAX TEMP:  93;

FORT HOOD      CLEAR     82  66  58 SE5       30.10R
6HR MIN TEMP:  82; 6HR MAX TEMP:  94;

GATESVILLE     CLEAR     77  64  65 S5        30.11S
HAMILTON       CLEAR     74  61  63 S6        30.12S
6HR MIN TEMP:  74; 6HR MAX TEMP:  92;

LAMPASAS       CLEAR     77  64  63 CALM      30.10S
6HR MIN TEMP:  76; 6HR MAX TEMP:  93;

$$

TXZ095>097-106>112-122>126-135>138-148>153-164>167-130700-
EAST TEXAS

CITY           SKY/WX    TMP DP  RH WIND       PRES   REMARKS
PARIS          CLEAR     79  64  61 E5        30.09R
6HR MIN TEMP:  77; 6HR MAX TEMP:  93;

SULPHUR SPRNGS CLEAR     82  68  64 SW3       30.10R
6HR MIN TEMP:  82; 6HR MAX TEMP:  95;

CLARKSVILLE    MOCLDY    79  69  72 CALM      30.08S
6HR MIN TEMP:  78; 6HR MAX TEMP:  96;

MOUNT PLEASANT CLEAR     74  73  95 NE3       30.09S
6HR MIN TEMP:  74; 6HR MAX TEMP:  94;

GILMER         CLEAR     79  73  83 CALM      30.09S
MINEOLA        CLOUDY    75  72  88 CALM      30.09S
TYLER          CLEAR     80  72  76 CALM      30.08S
6HR MIN TEMP:  79; 6HR MAX TEMP:  94;

LONGVIEW       CLEAR     78  74  87 S3        30.06F
6HR MIN TEMP:  78; 6HR MAX TEMP:  94;

MARSHALL         N/A    N/A N/A N/A MISG        N/A
ATHENS         CLEAR     73  72  94 CALM      30.07F
PALESTINE      CLEAR     75  69  81 CALM      30.10F
JACKSONVILLE   CLEAR     83  70  64 SW3       30.11F
HENDERSON      CLEAR     76  73  92 CALM      30.09S
6HR MIN TEMP:  76; 6HR MAX TEMP:  93;

NACOGDOCHES    CLEAR     79  73  83 SE7       30.09S
6HR MIN TEMP:  77; 6HR MAX TEMP:  91;

LUFKIN         CLEAR     80  73  79 CALM      30.08S
6HR MIN TEMP:  79; 6HR MAX TEMP:  95;

$$

SUPPLEMENTAL OBSERVATIONS (CENTRAL)

CITY           SKY/WX    TMP DP  RH WIND       PRES   REMARKS
PAT MAYSE LAKE   N/A     81  68  65 SE2         N/A
GREENVILLE       N/A     79  70  73 S2          N/A
MCGREGOR         N/A     77  64  65 SW3         N/A
$$

SUPPLEMENTAL OBSERVATIONS (WEST)

CITY           SKY/WX    TMP DP  RH WIND       PRES   REMARKS
MILLERS CREEK    N/A     81  46  30 S12         N/A
HAMBY            N/A     81  50  34 S9          N/A
IVIE RESERVOIR   N/A     77  55  47 SE5         N/A
COLORADO BEND    N/A     79  63  57 SE5         N/A
$$

SUPPLEMENTAL OBSERVATIONS (EAST)



USA.gov is the U.S. government's official web portal to all federal, state and local government web resources and services.